Wichita Falls, TX

9:49 PM CDT on October 17, 2017 (GMT -0500)
Sheppard Air Force Base-Wichita Falls Municipal

Weather History for KSPS - May, 2013

Change the Weather History Date:

Friday, May 17, 2013

  Actual Average Record
Temperature  
Mean Temperature 82 °F 72 °F  
Max Temperature 98 °F 84 °F 103 °F (1966)
Min Temperature 66 °F 60 °F 41 °F (1945)
Degree Days  
Heating Degree Days 0 1  
Month to date heating degree days 20  
Since 1 July heating degree days 2965  
Cooling Degree Days 17 7  
Month to date cooling degree days 90 96  
Year to date cooling degree days 167 188  
Growing Degree Days 32 (Base 50)    
Moisture  
Dew Point 68 °F    
Average Humidity 69    
Maximum Humidity 100    
Minimum Humidity 38    
Precipitation  
Precipitation 0.00 in 0.11 in 3.95 in (1957)
Month to date precipitation 0.04 1.94  
Year to date precipitation 5.68 9.64  
Snow  
Snow 0.00 in 0.00 in 0.00 in (2002)
Month to date snowfall 0.0  
Since 1 July snowfall 3.9  
Snow Depth -    
Sea Level Pressure  
Sea Level Pressure 29.76 in    
Wind  
Wind Speed 12 mph (ESE)    
Max Wind Speed 28 mph    
Max Gust Speed 32 mph    
Visibility 6 miles    
Events      
T = Trace of Precipitation, MM = Missing Value Source: NWS Daily Summary

Daily Weather History Graph

Daily Weather History Graph

Search for Another Location

Airport or City:

Trip Planner

Search our weather history database for the weather conditions in past years. The results will help you decide how hot, cold, wet, or windy it might be!

Date:

Astronomy

May. 17, 2013 Rise Set
Actual Time 6:30 AM CDT 8:30 PM CDT
Civil Twilight 6:03 AM CDT 8:58 PM CDT
Nautical Twilight 5:29 AM CDT 9:31 PM CDT
Astronomical Twilight 4:53 AM CDT 10:08 PM CDT
Moon 12:56 PM CDT (5/17) 1:30 AM CDT (5/17)
Length of Visible Light 14h 54m
Length of Day
13h 59m
Waxing Crescent, 45% of the Moon is Illuminated
May 17
Waxing Crescent
May 17
First Quarter
May 24
Full
May 31
Last Quarter
Jun 8
New

Hourly Weather History & Observations

Time (CDT) Temp. Heat Index Dew Point Humidity Pressure Visibility Wind Dir Wind Speed Gust Speed Precip Events Conditions
12:52 AM 66.9 °F - 64.9 °F 93% 29.77 in 6.0 mi East 11.5 mph - N/A   Overcast
1:00 AM 66.2 °F - 64.4 °F 94% 29.80 in 5.0 mi East 11.5 mph - N/A   Overcast
1:52 AM 66.9 °F - 66.0 °F 97% 29.77 in 5.0 mi East 12.7 mph - N/A   Overcast
2:52 AM 66.9 °F - 66.0 °F 97% 29.75 in 3.0 mi East 11.5 mph - N/A   Overcast
3:04 AM 66.2 °F - 66.2 °F 100% 29.79 in 2.5 mi East 10.4 mph - N/A   Overcast
3:11 AM 66.2 °F - 66.2 °F 100% 29.79 in 3.0 mi East 11.5 mph - N/A   Overcast
3:22 AM 66.2 °F - 66.2 °F 100% 29.78 in 2.0 mi ESE 10.4 mph - N/A   Overcast
3:32 AM 66.2 °F - 66.2 °F 100% 29.79 in 1.8 mi East 11.5 mph - N/A   Overcast
3:52 AM 66.0 °F - 66.0 °F 100% 29.75 in 1.2 mi East 9.2 mph - N/A   Overcast
4:52 AM 66.9 °F - 66.0 °F 97% 29.76 in 1.5 mi ENE 10.4 mph - N/A   Overcast
5:52 AM 66.9 °F - 66.0 °F 97% 29.77 in 1.5 mi ENE 12.7 mph - N/A   Overcast
6:52 AM 66.9 °F - 66.0 °F 97% 29.77 in 2.0 mi East 10.4 mph - N/A   Overcast
7:02 AM 66.2 °F - 66.2 °F 100% 29.81 in 2.0 mi ESE 9.2 mph - N/A   Overcast
7:52 AM 66.9 °F - 66.9 °F 100% 29.78 in 1.5 mi ESE 11.5 mph - N/A   Overcast
8:52 AM 70.0 °F - 69.1 °F 97% 29.77 in 2.0 mi SSE 12.7 mph - N/A   Overcast
9:05 AM 73.4 °F - 71.6 °F 94% 29.80 in 4.0 mi SSE 17.3 mph - N/A   Scattered Clouds
9:52 AM 79.0 °F - 71.1 °F 77% 29.77 in 6.0 mi SSE 15.0 mph - N/A   Haze
9:59 AM 80.6 °F 84.6 °F 71.6 °F 74% 29.80 in 6.0 mi SSE 13.8 mph 21.9 mph N/A   Haze
10:39 AM 82.4 °F 86.3 °F 69.8 °F 66% 29.81 in 7.0 mi SE 11.5 mph 18.4 mph N/A   Mostly Cloudy
10:52 AM 84.0 °F 88.4 °F 70.0 °F 63% 29.78 in 7.0 mi SSE 11.5 mph - N/A   Mostly Cloudy
11:28 AM 84.2 °F 88.4 °F 69.8 °F 62% 29.81 in 8.0 mi SSE 6.9 mph - N/A   Mostly Cloudy
11:52 AM 87.1 °F 91.3 °F 69.1 °F 55% 29.77 in 8.0 mi South 10.4 mph - N/A   Mostly Cloudy
12:52 PM 90.0 °F 94.5 °F 69.1 °F 50% 29.75 in 9.0 mi Variable 4.6 mph - N/A   Scattered Clouds
1:52 PM 91.9 °F 95.9 °F 68.0 °F 45% 29.74 in 9.0 mi Variable 5.8 mph 18.4 mph N/A   Partly Cloudy
2:52 PM 95.0 °F 97.9 °F 66.0 °F 38% 29.72 in 10.0 mi Variable 4.6 mph - N/A   Partly Cloudy
3:52 PM 96.8 °F 100.7 °F 66.2 °F 37% 29.75 in 10.0 mi East 10.4 mph 17.3 mph N/A   Partly Cloudy
4:52 PM 96.1 °F 102.9 °F 70.0 °F 43% 29.68 in 9.0 mi SE 18.4 mph - N/A   Scattered Clouds
5:52 PM 91.9 °F 99.5 °F 72.0 °F 52% 29.70 in 8.0 mi SE 24.2 mph 29.9 mph N/A   Scattered Clouds
6:52 PM 88.0 °F 93.8 °F 71.1 °F 57% 29.70 in 8.0 mi SE 21.9 mph 28.8 mph N/A   Scattered Clouds
7:52 PM 84.9 °F 90.1 °F 71.1 °F 63% 29.72 in 8.0 mi ESE 21.9 mph 27.6 mph N/A   Mostly Cloudy
8:52 PM 82.0 °F 86.3 °F 71.1 °F 69% 29.74 in 8.0 mi ESE 13.8 mph - N/A   Scattered Clouds
9:52 PM 79.0 °F - 70.0 °F 74% 29.75 in 8.0 mi ESE 10.4 mph - N/A   Clear
10:52 PM 78.1 °F - 70.0 °F 76% 29.74 in 8.0 mi ESE 11.5 mph - N/A   Clear
11:52 PM 75.9 °F - 70.0 °F 82% 29.75 in 8.0 mi ESE 9.2 mph - N/A   Clear